EW6764 Weather Reports


time (UTC)temp
C
wind
direction
speed
KPH
gust
KPH
rain 1hr
cm
rain 24hr
cm
rain mn
cm
humidity
%
barometer
mb
20260507213005 23 314 4.8 22.5 0.00 0.00 0.00 12 1011.0
20260507212506 23 14 8.0 19.3 0.00 0.00 0.00 13 1011.1
20260507212003 23 304 4.8 20.9 0.00 0.00 0.00 13 1011.1
20260507211503 23 300 6.4 16.1 0.00 0.00 0.00 12 1011.2
20260507211004 23 311 3.2 14.5 0.00 0.00 0.00 13 1011.3
20260507210502 23 323 3.2 16.1 0.00 0.00 0.00 14 1011.3
20260507210001 23 256 4.8 16.1 0.00 0.00 0.00 14 1011.3
20260507205600 23 288 3.2 16.1 0.00 0.00 0.00 15 1011.3
20260507205101 23 296 3.2 16.1 0.00 0.00 0.00 15 1011.4
20260507204557 23 54 1.6 16.1 0.00 0.00 0.00 15 1011.6
20260507204056 22 307 4.8 16.1 0.00 0.00 0.00 15 1011.7
20260507203559 22 309 9.7 16.1 0.00 0.00 0.00 14 1011.6
20260507203055 22 9 3.2 9.7 0.00 0.00 0.00 14 1011.8
20260507202557 22 32 3.2 25.7 0.00 0.00 0.00 15 1011.7
20260507202053 22 323 6.4 25.7 0.00 0.00 0.00 14 1011.7
20260507201555 21 294 4.8 14.5 0.00 0.00 0.00 15 1011.8
20260507201050 20 325 6.4 14.5 0.00 0.00 0.00 18 1011.7
20260507200550 19 127 0.0 14.5 0.00 0.00 0.00 21 1011.9
20260507200051 19 123 6.4 14.5 0.00 0.00 0.00 19 1011.9
20260507195548 19 162 3.2 12.9 0.00 0.00 0.00 21 1012.0
20260507195048 19 44 4.8 17.7 0.00 0.00 0.00 23 1012.1
20260507194547 19 78 6.4 17.7 0.00 0.00 0.00 25 1012.0
20260507194046 19 47 4.8 17.7 0.00 0.00 0.00 26 1012.1
20260507193546 19 26 6.4 16.1 0.00 0.00 0.00 26 1012.1
20260507193055 19 67 6.4 17.7 0.00 0.00 0.00 26 1012.1
20260507192546 18 5 9.7 17.7 0.00 0.00 0.00 25 1012.2
20260507192045 18 49 4.8 20.9 0.00 0.00 0.00 28 1012.1
20260507191547 18 62 8.0 20.9 0.00 0.00 0.00 28 1012.2
20260507191045 18 21 9.7 17.7 0.00 0.00 0.00 28 1012.3
20260507190545 18 339 9.7 20.9 0.00 0.00 0.00 28 1012.3
20260507190045 18 31 6.4 20.9 0.00 0.00 0.00 28 1012.3
20260507185544 19 38 4.8 16.1 0.00 0.00 0.00 29 1012.3
20260507185043 19 32 6.4 16.1 0.00 0.00 0.00 30 1012.4
20260507184546 19 21 4.8 16.1 0.00 0.00 0.00 30 1012.4
20260507184045 19 360 4.8 16.1 0.00 0.00 0.00 31 1012.3
20260507183545 19 319 4.8 12.9 0.00 0.00 0.00 29 1012.4
20260507183042 18 44 4.8 12.9 0.00 0.00 0.00 30 1012.4
20260507182540 18 351 0.0 9.7 0.00 0.00 0.00 33 1012.5
20260507182040 18 320 4.8 9.7 0.00 0.00 0.00 32 1012.5
20260507181538 18 323 0.0 12.9 0.00 0.00 0.00 36 1012.5
20260507181038 17 19 0.0 9.7 0.00 0.00 0.00 37 1012.6
20260507180541 17 33 3.2 16.1 0.00 0.00 0.00 37 1012.5
20260507180037 18 302 4.8 16.1 0.00 0.00 0.00 37 1012.6
20260507175537 17 38 3.2 16.1 0.00 0.00 0.00 38 1012.5
20260507175036 17 19 6.4 16.1 0.00 0.00 0.00 37 1012.5
20260507174547 17 34 6.4 12.9 0.00 0.00 0.00 36 1012.5
20260507174035 17 312 4.8 12.9 0.00 0.00 0.00 36 1012.4
20260507173534 17 24 3.2 12.9 0.00 0.00 0.00 38 1012.5
20260507173033 17 28 4.8 8.0 0.00 0.00 0.00 39 1012.5
20260507172532 16 32 0.0 9.7 0.00 0.00 0.00 39 1012.5
20260507172031 16 32 1.6 9.7 0.00 0.00 0.00 41 1012.5
20260507171541 16 34 3.2 9.7 0.00 0.00 0.00 43 1012.5
20260507171031 16 36 4.8 8.0 0.00 0.00 0.00 43 1012.6
20260507170531 16 37 3.2 9.7 0.00 0.00 0.00 44 1012.6
20260507170030 16 37 4.8 9.7 0.00 0.00 0.00 44 1012.6
20260507165533 16 40 4.8 9.7 0.00 0.00 0.00 42 1012.6
20260507165029 16 37 1.6 6.4 0.00 0.00 0.00 45 1012.6
20260507164528 15 33 1.6 9.7 0.00 0.00 0.00 46 1012.6
20260507164028 15 34 4.8 9.7 0.00 0.00 0.00 46 1012.6
20260507163528 15 36 1.6 9.7 0.00 0.00 0.00 47 1012.5
20260507163027 15 40 3.2 8.0 0.00 0.00 0.00 48 1012.5
20260507162527 15 41 1.6 11.3 0.00 0.00 0.00 47 1012.4
20260507162027 15 45 3.2 9.7 0.00 0.00 0.00 48 1012.4
20260507161527 15 33 0.0 8.0 0.00 0.00 0.00 49 1012.5
20260507161026 14 19 1.6 9.7 0.00 0.00 0.00 50 1012.5
20260507160526 14 54 4.8 9.7 0.00 0.00 0.00 51 1012.5
20260507160027 14 32 3.2 9.7 0.00 0.00 0.00 50 1012.5
20260507155525 14 32 6.4 9.7 0.00 0.00 0.00 49 1012.6
20260507155025 14 28 1.6 9.7 0.00 0.00 0.00 51 1012.6
20260507154524 14 27 1.6 14.5 0.00 0.00 0.00 51 1012.7
20260507154025 14 29 3.2 14.5 0.00 0.00 0.00 51 1012.6
20260507153524 13 41 0.0 8.0 0.00 0.00 0.00 52 1012.5
20260507153027 13 36 1.6 12.9 0.00 0.00 0.00 52 1012.6
20260507152525 13 26 4.8 12.9 0.00 0.00 0.00 51 1012.6
20260507152025 13 40 3.2 8.0 0.00 0.00 0.00 51 1012.6
20260507151524 13 35 1.6 8.0 0.00 0.00 0.00 50 1012.6
20260507151023 14 50 3.2 6.4 0.00 0.00 0.00 49 1012.6
20260507150524 14 142 1.6 4.8 0.00 0.00 0.00 48 1012.7
20260507150026 14 153 1.6 4.8 0.00 0.00 0.00 48 1012.8
20260507145523 14 150 0.0 4.8 0.00 0.00 0.00 50 1012.7
20260507145027 13 150 1.6 4.8 0.00 0.00 0.00 51 1012.7
20260507144522 12 150 0.0 3.2 0.00 0.00 0.00 52 1012.7
20260507144022 12 150 0.0 4.8 0.00 0.00 0.00 51 1012.7
20260507143521 13 148 0.0 3.2 0.00 0.00 0.00 51 1012.8
20260507143023 12 148 0.0 3.2 0.00 0.00 0.00 51 1012.8
20260507142522 12 148 0.0 1.6 0.00 0.00 0.00 52 1012.7
20260507142024 12 148 0.0 0.0 0.00 0.00 0.00 52 1012.7
20260507141523 12 148 0.0 0.0 0.00 0.00 0.00 53 1012.7
20260507141021 12 148 0.0 0.0 0.00 0.00 0.00 52 1012.7
20260507140524 12 148 0.0 0.0 0.00 0.00 0.00 52 1012.7
20260507140035 12 148 0.0 1.6 0.00 0.00 0.00 51 1012.7
20260507135520 12 147 0.0 1.6 0.00 0.00 0.00 50 1012.6
20260507135021 13 169 0.0 0.0 0.00 0.00 0.00 51 1012.5
20260507134518 12 169 0.0 1.6 0.00 0.00 0.00 52 1012.5
20260507134017 12 169 0.0 1.6 0.00 0.00 0.00 52 1012.4
20260507133517 12 179 0.0 0.0 0.00 0.00 0.00 54 1012.4
20260507133017 11 180 0.0 0.0 0.00 0.00 0.00 55 1012.3
20260507132516 11 180 0.0 0.0 0.00 0.00 0.00 55 1012.3
20260507132016 11 180 0.0 0.0 0.00 0.00 0.00 56 1012.2
20260507131532 11 175 0.0 1.6 0.00 0.00 0.00 56 1012.2
20260507131016 11 175 0.0 1.6 0.00 0.00 0.00 55 1012.1
20260507130516 11 175 0.0 1.6 0.00 0.00 0.00 54 1012.1
20260507130015 11 175 0.0 0.0 0.00 0.00 0.00 54 1012.2
20260507125515 11 175 0.0 0.0 0.00 0.00 0.00 53 1012.1
20260507125014 11 175 0.0 6.4 0.00 0.00 0.00 53 1012.1
20260507124519 11 175 0.0 9.7 0.00 0.00 0.00 52 1012.2
20260507124014 11 169 3.2 9.7 0.00 0.00 0.00 53 1012.0
20260507123515 11 163 4.8 8.0 0.00 0.00 0.00 53 1012.0
20260507123015 11 155 1.6 8.0 0.00 0.00 0.00 52 1012.0
20260507122518 11 140 0.0 4.8 0.00 0.00 0.00 53 1012.0
20260507122012 12 137 0.0 1.6 0.00 0.00 0.00 53 1012.0
20260507121512 11 137 0.0 0.0 0.00 0.00 0.00 53 1012.0
20260507121012 11 137 0.0 0.0 0.00 0.00 0.00 53 1012.0
20260507120513 12 137 0.0 0.0 0.00 0.00 0.00 53 1012.1
20260507120025 12 137 0.0 4.8 0.00 0.00 0.00 53 1012.1
20260507115512 12 137 1.6 4.8 0.00 0.00 0.00 53 1012.0
20260507115013 12 118 0.0 3.2 0.00 0.00 0.00 53 1012.1
20260507114510 12 117 0.0 3.2 0.00 0.00 0.00 54 1012.1
20260507114015 11 117 0.0 4.8 0.00 0.00 0.00 54 1012.2
20260507113511 11 111 0.0 6.4 0.00 0.00 0.00 55 1012.2
20260507113012 11 111 3.2 6.4 0.00 0.00 0.00 55 1012.2
20260507112511 11 105 0.0 0.0 0.00 0.00 0.00 54 1012.2
20260507112011 11 104 0.0 4.8 0.00 0.00 0.00 54 1012.2
20260507111507 11 104 0.0 6.4 0.00 0.00 0.00 54 1012.2
20260507111007 12 105 1.6 6.4 0.00 0.00 0.00 53 1012.2
20260507110505 12 101 3.2 9.7 0.00 0.00 0.00 54 1012.1
20260507110006 12 88 3.2 9.7 0.00 0.00 0.00 54 1012.1
20260507105505 12 92 3.2 6.4 0.00 0.00 0.00 54 1012.0
20260507105004 12 94 1.6 6.4 0.00 0.00 0.00 53 1012.1
20260507104505 12 94 1.6 12.9 0.00 0.00 0.00 53 1012.1
20260507104003 12 87 4.8 12.9 0.00 0.00 0.00 53 1012.1
20260507103501 12 91 4.8 9.7 0.00 0.00 0.00 52 1012.1
20260507103002 12 90 4.8 11.3 0.00 0.00 0.00 52 1012.1
20260507102501 12 88 6.4 11.3 0.00 0.00 0.00 52 1012.2
20260507102002 12 84 6.4 11.3 0.00 0.00 0.00 51 1012.1
20260507101601 12 97 3.2 9.7 0.00 0.00 0.00 51 1012.1
20260507101103 12 98 4.8 9.7 0.00 0.00 0.00 51 1012.2
20260507100559 12 86 4.8 9.7 0.00 0.00 0.00 51 1012.3
20260507095557 12 97 0.0 6.4 0.00 0.00 0.00 48 1012.2
20260507095056 12 100 3.2 11.3 0.00 0.00 0.00 48 1012.2
20260507094605 13 87 3.2 9.7 0.00 0.00 0.00 47 1012.1
20260507094056 13 219 0.0 0.0 0.00 0.00 0.00 46 1012.2
20260507093555 13 219 0.0 0.0 0.00 0.00 0.00 46 1012.1
20260507093053 13 219 0.0 0.0 0.00 0.00 0.00 46 1012.0
20260507092552 13 219 0.0 0.0 0.00 0.00 0.00 46 1012.0
20260507092054 13 219 0.0 1.6 0.00 0.00 0.00 45 1012.1
20260507091552 13 219 0.0 3.2 0.00 0.00 0.00 46 1012.1
20260507091059 13 219 0.0 6.4 0.00 0.00 0.00 47 1012.1
20260507090550 13 218 0.0 0.0 0.00 0.00 0.00 47 1012.1
20260507090050 13 218 0.0 0.0 0.00 0.00 0.00 48 1012.0
20260507085550 13 218 0.0 0.0 0.00 0.00 0.00 48 1012.1
20260507085049 13 218 0.0 0.0 0.00 0.00 0.00 48 1012.1
20260507084557 13 218 0.0 0.0 0.00 0.00 0.00 48 1012.1
20260507084049 13 218 0.0 3.2 0.00 0.00 0.00 48 1012.3
20260507083551 13 218 0.0 4.8 0.00 0.00 0.00 48 1012.2
20260507083048 13 218 0.0 4.8 0.00 0.00 0.00 49 1012.2
20260507082547 13 218 0.0 4.8 0.00 0.00 0.00 48 1012.2
20260507082047 13 218 0.0 4.8 0.00 0.00 0.00 47 1012.2
20260507081544 14 218 0.0 9.7 0.00 0.00 0.00 47 1012.1
20260507081044 14 214 1.6 12.9 0.00 0.00 0.00 47 1012.1
20260507080545 14 211 4.8 17.7 0.00 0.00 0.00 46 1012.0
20260507080043 14 223 4.8 17.7 0.00 0.00 0.00 46 1012.1
20260507075544 14 211 3.2 12.9 0.00 0.00 0.00 46 1012.1
20260507075041 14 210 4.8 11.3 0.00 0.00 0.00 45 1012.1
20260507074545 14 234 3.2 8.0 0.00 0.00 0.00 44 1012.2
20260507074038 14 263 0.0 11.3 0.00 0.00 0.00 43 1012.2
20260507073538 14 223 1.6 14.5 0.00 0.00 0.00 43 1012.3
20260507073037 14 213 1.6 14.5 0.00 0.00 0.00 42 1012.3
20260507072537 15 273 4.8 12.9 0.00 0.00 0.00 42 1012.3
20260507072035 15 263 1.6 19.3 0.00 0.00 0.00 41 1012.4
20260507071539 15 294 4.8 19.3 0.00 0.00 0.00 40 1012.4
20260507071034 15 255 1.6 17.7 0.00 0.00 0.00 40 1012.3
20260507070533 15 301 1.6 17.7 0.00 0.00 0.00 40 1012.3
20260507070033 15 286 3.2 14.5 0.00 0.00 0.00 41 1012.4
20260507065532 15 269 3.2 14.5 0.00 0.00 0.00 42 1012.4
20260507065031 15 283 6.4 14.5 0.00 0.00 0.00 42 1012.5
20260507064538 15 265 3.2 12.9 0.00 0.00 0.00 41 1012.5
20260507064031 15 263 3.2 14.5 0.00 0.00 0.00 42 1012.5
20260507063531 15 242 1.6 16.1 0.00 0.00 0.00 41 1012.6
20260507063030 15 244 6.4 16.1 0.00 0.00 0.00 42 1012.6
20260507062530 15 288 3.2 11.3 0.00 0.00 0.00 42 1012.6
20260507062032 15 241 3.2 6.4 0.00 0.00 0.00 42 1012.7
20260507061536 15 297 0.0 11.3 0.00 0.00 0.00 41 1012.8
20260507061030 16 290 3.2 11.3 0.00 0.00 0.00 41 1012.8
20260507060530 16 232 1.6 17.7 0.00 0.00 0.00 40 1012.8
20260507060037 16 218 3.2 17.7 0.00 0.00 0.00 39 1012.8
20260507055530 16 253 3.2 12.9 0.00 0.00 0.00 39 1012.9
20260507055030 16 262 3.2 19.3 0.00 0.00 0.00 39 1012.9
20260507054537 16 190 8.0 19.3 0.00 0.00 0.00 39 1012.9
20260507054029 16 267 1.6 14.5 0.00 0.00 0.00 40 1013.0
20260507053529 16 265 4.8 14.5 0.00 0.00 0.00 40 1012.9
20260507053030 16 265 1.6 12.9 0.00 0.00 0.00 40 1013.0
20260507052529 16 269 3.2 12.9 0.00 0.00 0.00 40 1012.9
20260507052028 16 263 1.6 9.7 0.00 0.00 0.00 38 1012.9
20260507051528 16 228 3.2 9.7 0.00 0.00 0.00 37 1012.9
20260507051027 16 298 1.6 8.0 0.00 0.00 0.00 36 1012.8
20260507050527 16 306 3.2 19.3 0.00 0.00 0.00 36 1012.9
20260507050049 16 291 6.4 19.3 0.00 0.00 0.00 36 1012.8
20260507045527 16 263 3.2 12.9 0.00 0.00 0.00 36 1012.9
20260507045026 16 292 1.6 11.3 0.00 0.00 0.00 36 1012.8
20260507044525 16 296 4.8 11.3 0.00 0.00 0.00 36 1012.8
20260507044025 17 323 0.0 14.5 0.00 0.00 0.00 35 1012.8
20260507043525 17 326 0.0 14.5 0.00 0.00 0.00 35 1012.9
20260507043025 17 262 0.0 3.2 0.00 0.00 0.00 35 1012.7
20260507042525 17 262 1.6 9.7 0.00 0.00 0.00 35 1012.7
20260507042024 17 263 0.0 16.1 0.00 0.00 0.00 34 1012.8
20260507041526 17 301 4.8 16.1 0.00 0.00 0.00 33 1012.7
20260507041025 17 258 4.8 16.1 0.00 0.00 0.00 34 1012.7
20260507040526 17 267 1.6 17.7 0.00 0.00 0.00 34 1012.6
20260507040025 17 238 4.8 17.7 0.00 0.00 0.00 34 1012.6
20260507035523 17 327 6.4 19.3 0.00 0.00 0.00 34 1012.5
20260507035025 17 253 3.2 9.7 0.00 0.00 0.00 34 1012.4
20260507034531 17 283 0.0 12.9 0.00 0.00 0.00 33 1012.4
20260507034022 17 290 4.8 16.1 0.00 0.00 0.00 32 1012.4
20260507033523 18 306 3.2 24.1 0.00 0.00 0.00 32 1012.4
20260507033030 18 289 9.7 24.1 0.00 0.00 0.00 32 1012.2
20260507032521 18 305 3.2 17.7 0.00 0.00 0.00 32 1012.2
20260507032021 18 268 6.4 29.0 0.00 0.00 0.00 31 1012.0
20260507031525 18 309 14.5 29.0 0.00 0.00 0.00 30 1012.0
20260507031024 18 288 8.0 20.9 0.00 0.00 0.00 31 1011.9
20260507030620 18 292 8.0 20.9 0.00 0.00 0.00 32 1011.8
20260507030021 19 292 8.0 20.9 0.00 0.00 0.00 32 1011.9
20260507025520 19 331 4.8 22.5 0.00 0.00 0.00 32 1011.8
20260507025020 20 312 6.4 22.5 0.00 0.00 0.00 32 1011.7
20260507024521 20 292 8.0 22.5 0.00 0.00 0.00 31 1011.6
20260507024019 20 325 6.4 17.7 0.00 0.00 0.00 30 1011.7
20260507023519 20 323 4.8 20.9 0.00 0.00 0.00 29 1011.7
20260507023019 21 256 4.8 20.9 0.00 0.00 0.00 27 1011.6
20260507022519 21 321 6.4 19.3 0.00 0.00 0.00 27 1011.5
20260507022019 21 283 8.0 17.7 0.00 0.00 0.00 27 1011.4
20260507021533 21 311 4.8 17.7 0.00 0.00 0.00 27 1011.5
20260507021019 21 290 8.0 29.0 0.00 0.00 0.00 27 1011.3
20260507020520 21 306 4.8 22.5 0.00 0.00 0.00 27 1011.4
20260507020024 21 46 8.0 20.9 0.00 0.00 0.00 27 1011.3
20260507015518 21 279 6.4 17.7 0.00 0.00 0.00 28 1011.3
20260507015019 21 317 6.4 16.1 0.00 0.00 0.00 28 1011.2
20260507014522 21 292 6.4 22.5 0.00 0.00 0.00 28 1011.3
20260507014022 21 296 8.0 24.1 0.00 0.00 0.00 28 1011.1
20260507013517 21 319 8.0 20.9 0.00 0.00 0.00 28 1011.1
20260507013017 22 282 3.2 19.3 0.00 0.00 0.00 28 1011.2
20260507012522 22 300 6.4 25.7 0.00 0.00 0.00 27 1011.0
20260507012017 22 298 1.6 24.1 0.00 0.00 0.00 27 1011.0
20260507011527 22 286 9.7 24.1 0.00 0.00 0.00 26 1011.0
20260507011016 22 306 3.2 12.9 0.00 0.00 0.00 26 1011.0
20260507010518 23 15 3.2 16.1 0.00 0.00 0.00 25 1011.0
20260507010029 23 292 6.4 16.1 0.00 0.00 0.00 25 1011.0
20260507005516 23 11 1.6 16.1 0.00 0.00 0.00 25 1011.0
20260507005024 23 329 6.4 19.3 0.00 0.00 0.00 25 1011.0
20260507004519 23 294 1.6 20.9 0.00 0.00 0.00 26 1010.9
20260507004015 23 265 3.2 20.9 0.00 0.00 0.00 26 1011.0
20260507003514 23 334 9.7 19.3 0.00 0.00 0.00 26 1010.9
20260507003014 23 323 6.4 17.7 0.00 0.00 0.00 26 1010.9
20260507002514 23 292 1.6 16.1 0.00 0.00 0.00 26 1010.8
20260507002014 23 317 3.2 19.3 0.00 0.00 0.00 26 1010.7
20260507001514 23 348 4.8 19.3 0.00 0.00 0.00 26 1010.8
20260507001015 23 236 9.7 32.2 0.00 0.00 0.00 26 1010.7
20260507000522 24 250 4.8 32.2 0.00 0.00 0.00 25 1010.7
20260507000013 24 254 6.4 22.5 0.00 0.00 0.00 25 1010.7
20260506235513 24 313 11.3 24.1 0.00 0.00 0.00 25 1010.6
20260506235020 25 260 6.4 25.7 0.00 0.00 0.00 24 1010.7
20260506234512 25 337 9.7 24.1 0.00 0.00 0.00 23 1010.6
20260506234011 25 285 4.8 24.1 0.00 0.00 0.00 22 1010.6
20260506233512 24 207 8.0 24.1 0.00 0.00 0.00 22 1010.6
20260506233012 25 315 4.8 24.1 0.00 0.00 0.00 22 1010.7
20260506232513 25 264 6.4 22.5 0.00 0.00 0.00 21 1010.6
20260506232010 26 283 6.4 17.7 0.00 0.00 0.00 19 1010.6
20260506231510 25 309 3.2 17.7 0.00 0.00 0.00 23 1010.6
20260506231010 25 241 8.0 22.5 0.00 0.00 0.00 22 1010.7
20260506230509 26 277 6.4 17.7 0.00 0.00 0.00 22 1010.7
20260506230012 25 270 6.4 17.7 0.00 0.00 0.00 22 1010.7
20260506225515 25 307 4.8 22.5 0.00 0.00 0.00 22 1010.7
20260506225008 26 338 11.3 22.5 0.00 0.00 0.00 21 1010.7
20260506224507 26 259 6.4 17.7 0.00 0.00 0.00 22 1010.7
20260506224006 26 295 4.8 20.9 0.00 0.00 0.00 23 1010.8
20260506223509 25 286 8.0 25.7 0.00 0.00 0.00 23 1010.8
20260506223010 25 261 9.7 25.7 0.00 0.00 0.00 24 1010.8
20260506222505 26 263 9.7 29.0 0.00 0.00 0.00 25 1010.9
20260506222008 26 94 8.0 29.0 0.00 0.00 0.00 24 1010.8
20260506221505 26 259 8.0 29.0 0.00 0.00 0.00 23 1010.7
20260506221004 26 253 4.8 20.9 0.00 0.00 0.00 23 1010.8
20260506220504 26 228 6.4 17.7 0.00 0.00 0.00 23 1010.8
20260506220004 25 285 4.8 19.3 0.00 0.00 0.00 24 1010.8
20260506215503 25 284 8.0 24.1 0.00 0.00 0.00 23 1010.8
20260506215007 26 321 8.0 30.6 0.00 0.00 0.00 22 1010.9
20260506214502 26 270 9.7 30.6 0.00 0.00 0.00 22 1010.8
20260506214002 26 313 9.7 20.9 0.00 0.00 0.00 23 1010.8
20260506213503 26 181 4.8 20.9 0.00 0.00 0.00 23 1010.8